FW6605 Weather Reports


time (UTC)temp
F
wind
direction
speed
knots
gust
knots
rain 1hr
in
rain 24hr
in
rain mn
in
humidity
%
barometer
mb
20260507211556 69 177 7.0 11.3 0.00 0.00 0.00 27 1015.7
20260507210056 69 211 7.0 11.3 0.00 0.00 0.00 25 1015.7
20260507204554 69 146 2.6 12.2 0.00 0.00 0.00 25 1016.1
20260507203056 68 250 3.5 11.3 0.00 0.00 0.00 24 1016.2
20260507201557 68 119 5.2 12.2 0.00 0.00 0.00 26 1016.5
20260507200058 67 98 7.8 13.0 0.00 0.00 0.00 27 1016.7
20260507194618 67 290 2.6 10.4 0.00 0.00 0.00 25 1017.0
20260507193056 67 254 3.5 9.6 0.00 0.00 0.00 24 1017.1
20260507191556 68 257 0.0 13.9 0.00 0.00 0.00 23 1017.2
20260507190057 66 254 3.5 9.6 0.00 0.00 0.00 24 1017.2
20260507184555 66 140 0.9 11.3 0.00 0.00 0.00 24 1017.4
20260507183055 66 171 1.7 8.7 0.00 0.00 0.00 26 1017.7
20260507181558 64 86 4.3 8.7 0.00 0.00 0.00 28 1018.2
20260507180058 64 91 5.2 8.7 0.00 0.00 0.00 28 1018.2
20260507174601 64 194 1.7 11.3 0.00 0.00 0.00 27 1018.4
20260507173132 63 360 1.7 8.7 0.00 0.00 0.00 28 1018.5
20260507171610 62 188 0.9 7.0 0.00 0.00 0.00 35 1018.6
20260507170116 61 0 1.7 8.7 0.00 0.00 0.00 37 1018.9
20260507164558 61 0 0.0 0.0 0.00 0.00 0.00 33 1019.1
20260507163055 59 0 0.0 0.0 0.00 0.00 0.00 35 1019.0
20260507161606 58 0 0.0 0.0 0.00 0.00 0.00 37 1019.1
20260507160057 56 0 0.0 0.0 0.00 0.00 0.00 37 1019.3
20260507154554 56 0 0.0 0.0 0.00 0.00 0.00 36 1019.3
20260507153059 54 0 0.0 0.0 0.00 0.00 0.00 45 1019.4
20260507151601 50 0 0.0 0.0 0.00 0.00 0.00 48 1019.5
20260507150100 48 0 0.0 0.0 0.00 0.00 0.00 59 1019.8
20260507144600 46 0 0.0 0.0 0.00 0.00 0.00 65 1019.6
20260507143104 44 0 0.0 0.0 0.00 0.00 0.00 73 1019.6
20260507141635 45 0 0.0 0.0 0.00 0.00 0.00 73 1019.5
20260507140059 44 0 0.0 0.0 0.00 0.00 0.00 77 1019.6
20260507134604 40 0 0.0 0.0 0.00 0.00 0.00 85 1019.7
20260507133106 37 0 0.0 0.0 0.00 0.00 0.00 85 1019.8
20260507131557 35 0 0.0 0.0 0.00 0.00 0.00 86 1019.7
20260507130057 32 0 0.0 0.0 0.00 0.00 0.00 88 1019.7
20260507124556 30 0 0.0 0.0 0.00 0.00 0.00 88 1019.6
20260507123057 29 0 0.0 0.9 0.00 0.00 0.00 88 1019.5
20260507121553 27 0 0.0 0.0 0.00 0.00 0.00 89 1019.5
20260507120104 26 0 0.0 0.0 0.00 0.00 0.00 88 1019.4
20260507114608 26 0 0.0 0.0 0.00 0.00 0.00 89 1019.6
20260507113055 26 0 0.0 0.0 0.00 0.00 0.00 89 1019.4
20260507111558 26 0 0.0 0.0 0.00 0.00 0.00 89 1019.6
20260507104628 26 0 0.0 0.0 0.00 0.00 0.00 89 1019.6
20260507103053 28 0 0.0 0.0 0.00 0.00 0.00 90 1019.7
20260507101602 27 0 0.0 0.0 0.00 0.00 0.00 90 1020.0
20260507094559 28 0 0.0 0.0 0.00 0.00 0.00 90 1020.2
20260507093055 29 0 0.0 0.0 0.00 0.00 0.00 90 1020.4
20260507091557 28 0 0.0 0.0 0.00 0.00 0.00 90 1020.5
20260507090059 28 0 0.0 0.0 0.00 0.00 0.00 89 1020.7
20260507084601 29 0 0.0 0.0 0.00 0.00 0.00 90 1020.8
20260507083056 29 0 0.0 0.0 0.00 0.00 0.00 90 1020.7
20260507081555 30 0 0.0 0.0 0.00 0.00 0.00 90 1020.8
20260507080053 29 0 0.0 5.2 0.00 0.00 0.00 90 1021.1
20260507074606 29 0 0.0 0.0 0.00 0.00 0.00 90 1021.4
20260507073133 29 0 0.0 0.0 0.00 0.00 0.00 90 1021.5
20260507071555 29 0 0.0 0.0 0.00 0.00 0.00 90 1021.4
20260507070058 28 0 0.0 0.0 0.00 0.00 0.00 90 1021.7
20260507064610 28 0 0.0 0.0 0.00 0.00 0.00 89 1021.6
20260507063105 28 0 0.0 0.0 0.00 0.00 0.00 88 1021.5
20260507061556 29 0 0.0 0.9 0.00 0.00 0.00 88 1021.6
20260507060100 30 0 0.9 4.3 0.00 0.00 0.00 89 1021.7
20260507054556 28 0 0.0 0.0 0.00 0.00 0.00 88 1021.5
20260507053053 30 0 0.0 0.0 0.00 0.00 0.00 88 1021.5
20260507051556 29 0 0.0 0.0 0.00 0.00 0.00 89 1021.4
20260507050057 30 0 0.0 0.0 0.00 0.00 0.00 87 1021.5
20260507044601 32 0 0.0 0.0 0.00 0.00 0.00 87 1021.5
20260507043101 32 0 0.0 0.0 0.00 0.00 0.00 88 1021.5
20260507041601 32 0 0.0 0.0 0.00 0.00 0.00 89 1021.6
20260507040107 32 0 0.0 0.0 0.00 0.00 0.00 88 1021.4
20260507034619 32 0 0.0 0.0 0.00 0.00 0.00 86 1021.4
20260507033108 33 0 0.0 0.0 0.00 0.00 0.00 86 1021.5
20260507031601 34 0 0.0 2.6 0.00 0.00 0.00 86 1021.4
20260507030105 34 0 0.0 5.2 0.00 0.00 0.00 85 1021.2
20260507024604 35 0 0.0 5.2 0.00 0.00 0.00 85 1021.3
20260507023054 35 0 0.0 4.3 0.00 0.00 0.00 84 1021.1
20260507021604 36 154 0.9 3.5 0.00 0.00 0.00 84 1021.0
20260507020059 37 360 2.6 5.2 0.00 0.00 0.00 81 1020.9
20260507014557 39 360 4.3 8.7 0.00 0.00 0.00 79 1020.9
20260507013114 40 360 7.0 9.6 0.00 0.00 0.00 76 1021.0
20260507011557 41 360 5.2 7.8 0.00 0.00 0.00 76 1020.9
20260507010057 41 360 4.3 7.8 0.00 0.00 0.00 76 1020.9
20260507004554 40 360 4.3 8.7 0.00 0.00 0.00 75 1020.8
20260507003054 40 360 4.3 7.8 0.00 0.00 0.00 76 1020.8
20260507001611 40 360 3.5 8.7 0.00 0.00 0.00 75 1020.9
20260507000057 41 360 4.3 8.7 0.00 0.00 0.00 76 1020.9
20260506234609 40 360 5.2 9.6 0.00 0.00 0.00 78 1020.8
20260506233108 40 360 7.0 10.4 0.00 0.00 0.00 78 1020.8
20260506231601 41 360 6.1 9.6 0.00 0.00 0.00 77 1020.8
20260506230058 41 360 5.2 9.6 0.00 0.00 0.00 72 1020.7
20260506224613 40 360 0.0 1.7 0.00 0.00 0.00 69 1020.7
20260506223059 40 0 0.0 0.0 0.00 0.00 0.00 71 1020.7
20260506221556 40 0 0.0 0.9 0.00 0.00 0.00 72 1020.7
20260506220108 40 0 0.0 3.5 0.00 0.00 0.00 76 1020.9
20260506214554 39 0 0.9 4.3 0.00 0.00 0.00 77 1020.8
20260506213058 39 360 0.9 3.5 0.00 0.00 0.00 79 1020.8